NUSAT 1 (LO-87)

Last updated on Sun Nov 18 2018 00:08:36 GMT+0000 (Coordinated Universal Time)

1 41557U 16033B 18321.86637742 .00001138 00000-0 45571-4 0 9992 2 41557 97.4309 45.5665 0012172 334.2971 25.7661 15.27098919137615

Satellite not in orbit

NUSAT 1 (LO-87)